FW4808 Weather Reports


time (UTC)temp
C
wind
direction
speed
KPH
gust
KPH
rain 1hr
cm
rain 24hr
cm
rain mn
cm
humidity
%
barometer
mb
20260505035003 17 164 0.0 9.7 0.00 0.00 0.00 56 1009.8
20260505034503 17 194 0.0 3.2 0.00 0.00 0.00 56 1009.9
20260505034003 17 193 0.0 3.2 0.00 0.00 0.00 56 1010.0
20260505033717 17 195 0.0 4.8 0.00 0.00 0.00 55 1009.9
20260505033003 17 192 0.0 4.8 0.00 0.00 0.00 55 1009.9
20260505032503 17 188 0.0 1.6 0.00 0.00 0.00 55 1009.8
20260505032003 17 176 0.0 1.6 0.00 0.00 0.00 55 1009.8
20260505031503 17 169 0.0 4.8 0.00 0.00 0.00 55 1009.8
20260505031004 17 179 0.0 4.8 0.00 0.00 0.00 54 1009.7
20260505030503 17 182 0.0 4.8 0.00 0.00 0.00 54 1009.8
20260505030004 17 165 0.0 4.8 0.00 0.00 0.00 53 1009.8
20260505025503 17 165 0.0 4.8 0.00 0.00 0.00 53 1009.9
20260505025218 17 158 0.0 4.8 0.00 0.00 0.00 53 1010.0
20260505024503 17 0 0.0 0.0 0.00 0.00 0.00 52 1010.0
20260505024004 18 0 0.0 0.0 0.00 0.00 0.00 52 1010.0
20260505023503 18 0 0.0 0.0 0.00 0.00 0.00 51 1010.0
20260505023003 18 0 0.0 0.0 0.00 0.00 0.00 51 1010.0
20260505022503 18 0 0.0 0.0 0.00 0.00 0.00 51 1009.9
20260505022003 18 185 0.0 4.8 0.00 0.00 0.00 50 1009.9
20260505021503 18 185 0.0 4.8 0.00 0.00 0.00 50 1010.0
20260505021217 18 185 0.0 4.8 0.00 0.00 0.00 50 1009.9
20260505020503 18 179 0.0 4.8 0.00 0.00 0.00 49 1009.8
20260505020004 18 179 0.0 4.8 0.00 0.00 0.00 49 1009.8
20260505015503 18 179 0.0 4.8 0.00 0.00 0.00 49 1009.7
20260505015004 18 177 0.0 4.8 0.00 0.00 0.00 48 1009.9
20260505014718 18 184 0.0 6.4 0.00 0.00 0.00 48 1009.9
20260505014004 18 189 0.0 6.4 0.00 0.00 0.00 48 1009.9
20260505013503 18 171 0.0 6.4 0.00 0.00 0.00 48 1009.9
20260505013003 18 172 0.0 6.4 0.00 0.00 0.00 48 1009.8
20260505012503 18 183 0.0 9.7 0.00 0.00 0.00 48 1009.7
20260505012003 18 185 1.6 12.9 0.00 0.00 0.00 47 1009.5
20260505011718 18 182 0.0 12.9 0.00 0.00 0.00 47 1009.4
20260505011003 19 174 0.0 6.4 0.00 0.00 0.00 47 1009.4
20260505010503 19 179 0.0 6.4 0.00 0.00 0.00 46 1009.3
20260505010004 19 182 0.0 6.4 0.00 0.00 0.00 46 1009.3
20260505005503 19 180 0.0 6.4 0.00 0.00 0.00 45 1009.2
20260505005004 20 165 0.0 9.7 0.00 0.00 0.00 45 1009.2
20260505004503 20 174 0.0 9.7 0.00 0.00 0.00 44 1009.2
20260505004004 20 183 0.0 4.8 0.00 0.00 0.00 44 1009.3
20260505003503 20 171 0.0 3.2 0.00 0.00 0.00 44 1009.2
20260505003003 20 177 0.0 3.2 0.00 0.00 0.00 43 1009.2
20260505002503 20 181 0.0 3.2 0.00 0.00 0.00 43 1009.2
20260505002003 20 190 0.0 4.8 0.00 0.00 0.00 42 1009.2
20260505001718 20 187 0.0 11.3 0.00 0.00 0.00 42 1009.2
20260505001003 20 180 0.0 11.3 0.00 0.00 0.00 42 1009.1
20260505000718 20 169 0.0 6.4 0.00 0.00 0.00 41 1009.1
20260505000003 21 177 0.0 6.4 0.00 0.00 0.00 40 1009.1
20260504235503 21 175 0.0 6.4 0.00 0.00 0.00 39 1009.0
20260504235004 21 176 0.0 8.0 0.00 0.00 0.00 39 1008.9
20260504234503 21 177 0.0 8.0 0.00 0.00 0.00 38 1008.9
20260504234003 21 174 1.6 12.9 0.00 0.00 0.00 38 1008.8
20260504233504 22 177 1.6 12.9 0.00 0.00 0.00 37 1008.8
20260504233003 22 173 1.6 17.7 0.00 0.00 0.00 37 1008.8
20260504232504 22 175 1.6 17.7 0.00 0.00 0.00 36 1008.7
20260504232003 22 183 1.6 14.5 0.00 0.00 0.00 36 1008.8
20260504231503 22 185 3.2 16.1 0.00 0.00 0.00 36 1008.9
20260504231003 22 186 1.6 16.1 0.00 0.00 0.00 35 1008.9
20260504230503 22 184 1.6 12.9 0.00 0.00 0.00 36 1008.8
20260504230004 22 182 3.2 24.1 0.00 0.00 0.00 35 1008.9
20260504225503 23 178 4.8 24.1 0.00 0.00 0.00 35 1008.8
20260504225218 23 180 3.2 24.1 0.00 0.00 0.00 35 1008.9
20260504224503 23 183 1.6 11.3 0.00 0.00 0.00 35 1008.9
20260504224004 23 178 1.6 16.1 0.00 0.00 0.00 34 1008.9
20260504223503 23 178 1.6 16.1 0.00 0.00 0.00 34 1008.8
20260504223004 23 185 1.6 8.0 0.00 0.00 0.00 34 1008.9
20260504222717 23 198 1.6 9.7 0.00 0.00 0.00 34 1008.9
20260504222218 23 188 1.6 19.3 0.00 0.00 0.00 34 1008.9
20260504221503 23 181 1.6 16.1 0.00 0.00 0.00 34 1008.9
20260504221004 23 182 3.2 19.3 0.00 0.00 0.00 34 1008.9
20260504220503 23 183 3.2 19.3 0.00 0.00 0.00 34 1009.0
20260504220004 23 182 1.6 14.5 0.00 0.00 0.00 35 1009.0
20260504215503 23 180 3.2 14.5 0.00 0.00 0.00 34 1009.0
20260504215003 23 183 3.2 20.9 0.00 0.00 0.00 34 1009.0
20260504214504 23 184 3.2 20.9 0.00 0.00 0.00 34 1008.9
20260504214003 23 184 3.2 16.1 0.00 0.00 0.00 34 1008.9
20260504213503 23 182 4.8 19.3 0.00 0.00 0.00 35 1008.9
20260504213003 23 183 4.8 19.3 0.00 0.00 0.00 35 1008.9
20260504212503 23 190 3.2 19.3 0.00 0.00 0.00 33 1009.0
20260504212003 23 191 1.6 14.5 0.00 0.00 0.00 35 1009.1
20260504211503 23 184 1.6 11.3 0.00 0.00 0.00 34 1009.1
20260504211003 23 186 1.6 12.9 0.00 0.00 0.00 36 1008.9
20260504210504 23 185 3.2 12.9 0.00 0.00 0.00 35 1008.9
20260504210004 23 183 3.2 12.9 0.00 0.00 0.00 34 1009.1
20260504205503 23 193 1.6 11.3 0.00 0.00 0.00 34 1009.1
20260504205003 23 194 1.6 11.3 0.00 0.00 0.00 35 1009.2
20260504204717 23 190 1.6 14.5 0.00 0.00 0.00 35 1009.1
20260504204004 23 196 1.6 16.1 0.00 0.00 0.00 34 1009.1
20260504203503 23 196 1.6 17.7 0.00 0.00 0.00 35 1009.1
20260504203003 23 189 3.2 17.7 0.00 0.00 0.00 34 1009.2
20260504202503 23 193 1.6 17.7 0.00 0.00 0.00 34 1009.3
20260504202217 23 218 0.0 8.0 0.00 0.00 0.00 35 1009.3
20260504201504 23 192 1.6 12.9 0.00 0.00 0.00 36 1009.5
20260504201003 23 195 1.6 14.5 0.00 0.00 0.00 35 1009.5
20260504200503 23 215 1.6 14.5 0.00 0.00 0.00 35 1009.5
20260504200003 23 202 1.6 11.3 0.00 0.00 0.00 35 1009.7
20260504195503 23 193 1.6 12.9 0.00 0.00 0.00 35 1009.7
20260504195003 23 194 3.2 16.1 0.00 0.00 0.00 35 1009.8
20260504194503 22 204 3.2 16.1 0.00 0.00 0.00 35 1009.9
20260504194003 22 213 1.6 14.5 0.00 0.00 0.00 35 1010.0
20260504193503 22 185 1.6 14.5 0.00 0.00 0.00 35 1010.0
20260504193003 22 194 1.6 14.5 0.00 0.00 0.00 35 1010.1
20260504192503 22 204 1.6 12.9 0.00 0.00 0.00 35 1010.3
20260504192003 22 180 1.6 14.5 0.00 0.00 0.00 35 1010.4
20260504191503 22 173 3.2 14.5 0.00 0.00 0.00 37 1010.5
20260504191003 22 193 3.2 14.5 0.00 0.00 0.00 35 1010.5
20260504190718 22 220 1.6 12.9 0.00 0.00 0.00 34 1010.5
20260504190003 22 218 1.6 14.5 0.00 0.00 0.00 34 1010.7
20260504185718 22 209 1.6 14.5 0.00 0.00 0.00 34 1010.8
20260504185217 22 175 0.0 9.7 0.00 0.00 0.00 34 1010.7
20260504184503 22 222 1.6 19.3 0.00 0.00 0.00 34 1011.0
20260504184003 22 196 1.6 19.3 0.00 0.00 0.00 35 1011.1
20260504183503 22 183 1.6 19.3 0.00 0.00 0.00 33 1011.1
20260504183004 22 210 0.0 4.8 0.00 0.00 0.00 34 1011.2
20260504182503 23 245 1.6 11.3 0.00 0.00 0.00 33 1011.3
20260504182219 23 241 1.6 11.3 0.00 0.00 0.00 33 1011.3
20260504181718 23 211 1.6 16.1 0.00 0.00 0.00 33 1011.3
20260504181218 23 198 1.6 25.7 0.00 0.00 0.00 34 1011.4
20260504180503 23 248 1.6 16.1 0.00 0.00 0.00 33 1011.4
20260504180004 23 226 1.6 11.3 0.00 0.00 0.00 33 1011.4
20260504175717 22 207 3.2 19.3 0.00 0.00 0.00 34 1011.5
20260504175003 22 202 3.2 19.3 0.00 0.00 0.00 33 1011.5
20260504174503 22 182 1.6 17.7 0.00 0.00 0.00 34 1011.4
20260504174003 22 171 3.2 17.7 0.00 0.00 0.00 33 1011.5
20260504173503 23 177 3.2 12.9 0.00 0.00 0.00 32 1011.7
20260504173218 23 180 1.6 12.9 0.00 0.00 0.00 33 1011.8
20260504172504 23 225 0.0 8.0 0.00 0.00 0.00 33 1011.7
20260504172003 23 251 1.6 14.5 0.00 0.00 0.00 33 1011.7
20260504171503 23 254 1.6 14.5 0.00 0.00 0.00 32 1011.8
20260504171003 23 260 1.6 11.3 0.00 0.00 0.00 33 1011.9
20260504170503 23 241 1.6 11.3 0.00 0.00 0.00 33 1011.9
20260504151003 22 255 3.2 25.7 0.00 0.00 0.00 32 1013.2
20260504150504 22 261 3.2 25.7 0.00 0.00 0.00 31 1013.2
20260504141217 19 190 0.0 11.3 0.00 0.00 0.00 34 1013.3
20260504140503 18 201 1.6 11.3 0.00 0.00 0.00 36 1013.4
20260504130717 13 188 0.0 9.7 0.00 0.00 0.00 48 1013.6
20260504120218 11 191 0.0 3.2 0.00 0.00 0.00 58 1013.8
20260504110503 9 186 0.0 3.2 0.00 0.00 0.00 61 1013.8
20260504082004 8 0 0.0 0.0 0.00 0.00 0.00 55 1014.5
20260504081504 7 0 0.0 0.0 0.00 0.00 0.00 54 1014.5
20260504081004 7 0 0.0 0.0 0.00 0.00 0.00 53 1014.5
20260504080503 7 0 0.0 0.0 0.00 0.00 0.00 53 1014.5
20260504060218 6 0 0.0 0.0 0.00 0.00 0.00 59 1014.8
20260504050503 6 0 0.0 0.0 0.00 0.00 0.00 63 1015.0
20260504050003 7 0 0.0 0.0 0.00 0.00 0.00 63 1015.0
20260504045503 7 0 0.0 0.0 0.00 0.00 0.00 63 1015.0
20260504045003 7 0 0.0 0.0 0.00 0.00 0.00 63 1014.9
20260504044504 7 0 0.0 0.0 0.00 0.00 0.00 62 1014.9
20260504044003 7 0 0.0 0.0 0.00 0.00 0.00 61 1015.0
20260504043503 7 0 0.0 0.0 0.00 0.00 0.00 58 1014.9
20260504043003 7 0 0.0 0.0 0.00 0.00 0.00 58 1014.8
20260504042503 7 0 0.0 0.0 0.00 0.00 0.00 59 1014.8
20260504042003 7 0 0.0 0.0 0.00 0.00 0.00 62 1014.8
20260504041504 7 0 0.0 0.0 0.00 0.00 0.00 62 1014.8
20260504041003 7 0 0.0 0.0 0.00 0.00 0.00 60 1014.8
20260504040503 7 0 0.0 0.0 0.00 0.00 0.00 58 1014.7
20260504040004 7 0 0.0 0.0 0.00 0.00 0.00 57 1014.6
20260504035503 7 0 0.0 0.0 0.00 0.00 0.00 56 1014.6